Location: Winnipeg
(49.8830°N, 97.1670°W)
Time: 07:44:10
(UTC-06:00)

X-37B - Pass Details

Date: 12 December 2022
Orbit: 277 x 277 km, 45.0° (Epoch: 01 November)

Event Time Altitude Azimuth Distance (km) Brightness Sun altitude
Rises 17:30:06 0° 239° (WSW) 1,911 6.3 -9.5°
Reaches altitude 10° 17:32:15 10° 221° (SW) 1,100 4.1 -9.9°
Maximum altitude 17:34:12 21° 169° (SSE) 701 2.0 -10.1°
Drops below altitude 10° 17:36:09 10° 116° (ESE) 1,102 2.5 -10.4°
Enters shadow 17:36:09 10° 116° (ESE) 1,104 2.5 -10.4°
